Location: *
(46.1833°N, 22.7667°E)
Time: 22:17:12
(UTC+00:00)

Cosmos 2227 Rocket - Pass Details

Date: 17 September 2019
Orbit: 837 x 847 km, 71.0° (Epoch: 21 October)

Event Time Altitude Azimuth Distance (km) Brightness Sun altitude
Rises 17:34:54 0° 158° (SSE) 3,380 5.0 -10.7°
Reaches altitude 10° 17:38:05 10° 139° (SE) 2,453 4.1 -11.2°
Maximum altitude 17:41:43 18° 99° (E) 1,963 3.5 -11.8°
Drops below altitude 10° 17:45:22 10° 58° (ENE) 2,469 4.2 -12.4°
Sets 17:48:34 0° 40° (NE) 3,411 5.1 -12.9°
